Weather in Chemodanovo

Russia / Kaluga Oblast     54°37′55″N   35°32′08″E
temp.,
°C
wind,
m/s
gust,
m/s
humid.,
%
clouds,
%
prec.,
mm/h
press.,
hPa
HPBL,
m
13 april, tue
tue1300:00+10e31192100 0.0 1024296
03:00+8ese399113 0.0 1023193
06:00+7se3990100 0.0 1024160
09:00+13sse3771100 0.0 1023259
12:00+17sse4752100 0.0 1023755
15:00+20sse584149 0.0 10211881
18:00+18sse494915 0.0 1020438
21:00+12se386556 0.0 1021144
14 april, wed
wed1400:00+10se3971100 0.0 1020174
03:00+10se397493 0.0 1020201
06:00+8sse311856 0.0 1019241
09:00+12sse387586 0.0 1019369
12:00+17sse465622 0.0 10181280
15:00+19sse473744 0.1 10161999
18:00+16se3747100 0.0 1016214
21:00+11sse116596 0.0 101711
15 april, thu
thu1500:00+10nw1179100 0.0 101612
03:00+10nw238594 0.0 101766
06:00+8ne2283100 0.0 101624
09:00+12ese1261100 0.0 1016266
12:00+16ene1249100 0.0 1016692
15:00+16sse3552100 0.6 10161231
18:00+13nw2270100 0.3 101539
21:00
16 april, fri
fri1600:00+10e41372100 0.0 1016446
03:00+9ne41475100 0.4 1015444
06:00+9ene51383100 0.1 1016511
09:00+11ene5137993 0.4 1016651
12:00+15ene6960100 0.4 10171123
15:00+17ene6953100 0.4 10171517
18:00+14ene7116284 0.1 10171074
21:00+11ene61576100 1.9 1020744
17 april, sat
sat1700:00+10ene51277100 0.0 1020813
03:00+9ene5128191 0.0 1021741
06:00+8ne5128232 0.0 1022684
09:00+7ne51273100 0.0 1024691
12:00+12ene695563 0.0 10241247
15:00+14ene68407 0.0 10251464
18:00+12ene69435 0.0 10251335
21:00+8ne412550 0.0 1027565